| time (UTC) | temp C | wind direction | speed KPH | gust KPH | rain 1hr cm | rain 24hr cm | rain mn cm | humidity % | barometer mb |
| 20260507183536 | 17 | 157 | 1.6 | 4.8 | 0.00 | 0.00 | 0.00 | 74 | 1013.9 |
| 20260507183016 | 17 | 177 | 1.6 | 6.4 | 0.00 | 0.00 | 0.00 | 74 | 1013.9 |
| 20260507182536 | 17 | 170 | 1.6 | 6.4 | 0.00 | 0.00 | 0.00 | 74 | 1014.0 |
| 20260507182016 | 17 | 126 | 1.6 | 4.8 | 0.00 | 0.00 | 0.00 | 73 | 1014.1 |
| 20260507181516 | 18 | 169 | 1.6 | 9.7 | 0.00 | 0.00 | 0.00 | 73 | 1014.1 |
| 20260507181016 | 18 | 252 | 4.8 | 9.7 | 0.00 | 0.00 | 0.00 | 73 | 1014.0 |
| 20260507180516 | 18 | 270 | 3.2 | 9.7 | 0.00 | 0.00 | 0.00 | 73 | 1014.0 |
| 20260507180018 | 18 | 278 | 4.8 | 9.7 | 0.00 | 0.00 | 0.00 | 72 | 1014.1 |
| 20260507175516 | 18 | 185 | 1.6 | 9.7 | 0.00 | 0.00 | 0.00 | 72 | 1014.1 |
| 20260507175016 | 18 | 238 | 4.8 | 11.3 | 0.00 | 0.00 | 0.00 | 72 | 1014.1 |
| 20260507174516 | 18 | 268 | 3.2 | 11.3 | 0.00 | 0.00 | 0.00 | 72 | 1014.0 |
| 20260507174016 | 18 | 228 | 3.2 | 9.7 | 0.00 | 0.00 | 0.00 | 72 | 1014.0 |
| 20260507173519 | 18 | 258 | 6.4 | 12.9 | 0.00 | 0.00 | 0.00 | 71 | 1014.0 |
| 20260507173016 | 18 | 275 | 4.8 | 12.9 | 0.00 | 0.00 | 0.00 | 72 | 1013.9 |
| 20260507172516 | 18 | 169 | 3.2 | 11.3 | 0.00 | 0.00 | 0.00 | 72 | 1013.9 |
| 20260507172036 | 18 | 173 | 4.8 | 11.3 | 0.00 | 0.00 | 0.00 | 72 | 1013.9 |
| 20260507171516 | 18 | 179 | 6.4 | 12.9 | 0.00 | 0.00 | 0.00 | 72 | 1013.8 |
| 20260507171016 | 18 | 150 | 3.2 | 12.9 | 0.00 | 0.00 | 0.00 | 72 | 1013.8 |
| 20260507170556 | 18 | 148 | 3.2 | 9.7 | 0.00 | 0.00 | 0.00 | 72 | 1013.8 |
| 20260507170056 | 18 | 216 | 3.2 | 11.3 | 0.00 | 0.00 | 0.00 | 71 | 1013.8 |
| 20260507165516 | 18 | 191 | 6.4 | 11.3 | 0.00 | 0.00 | 0.00 | 71 | 1013.7 |
| 20260507165036 | 18 | 165 | 6.4 | 11.3 | 0.00 | 0.00 | 0.00 | 70 | 1013.7 |
| 20260507164516 | 18 | 180 | 6.4 | 12.9 | 0.00 | 0.00 | 0.00 | 70 | 1013.7 |
| 20260507164016 | 18 | 175 | 8.0 | 12.9 | 0.00 | 0.00 | 0.00 | 69 | 1013.8 |
| 20260507163516 | 19 | 189 | 6.4 | 11.3 | 0.00 | 0.00 | 0.00 | 69 | 1013.9 |
| 20260507163016 | 19 | 231 | 6.4 | 11.3 | 0.00 | 0.00 | 0.00 | 70 | 1013.9 |
| 20260507162536 | 18 | 262 | 4.8 | 11.3 | 0.00 | 0.00 | 0.00 | 70 | 1013.8 |
| 20260507162016 | 18 | 226 | 4.8 | 11.3 | 0.00 | 0.00 | 0.00 | 70 | 1013.9 |
| 20260507161516 | 19 | 239 | 6.4 | 12.9 | 0.00 | 0.00 | 0.00 | 70 | 1013.8 |
| 20260507161016 | 19 | 191 | 6.4 | 12.9 | 0.00 | 0.00 | 0.00 | 69 | 1013.8 |
| 20260507160516 | 19 | 163 | 3.2 | 12.9 | 0.00 | 0.00 | 0.00 | 70 | 1013.8 |
| 20260507160036 | 19 | 163 | 6.4 | 12.9 | 0.00 | 0.00 | 0.00 | 70 | 1013.8 |
| 20260507155516 | 18 | 167 | 4.8 | 12.9 | 0.00 | 0.00 | 0.00 | 71 | 1013.8 |
| 20260507155016 | 18 | 167 | 8.0 | 16.1 | 0.00 | 0.00 | 0.00 | 71 | 1014.0 |
| 20260507154516 | 18 | 166 | 6.4 | 16.1 | 0.00 | 0.00 | 0.00 | 71 | 1014.0 |
| 20260507154016 | 18 | 197 | 8.0 | 16.1 | 0.00 | 0.00 | 0.00 | 71 | 1014.1 |
| 20260507153516 | 18 | 179 | 9.7 | 17.7 | 0.00 | 0.00 | 0.00 | 71 | 1014.1 |
| 20260507153016 | 18 | 190 | 6.4 | 17.7 | 0.00 | 0.00 | 0.00 | 72 | 1013.9 |
| 20260507152516 | 18 | 167 | 8.0 | 17.7 | 0.00 | 0.00 | 0.00 | 72 | 1013.9 |
| 20260507152036 | 18 | 171 | 6.4 | 19.3 | 0.00 | 0.00 | 0.00 | 72 | 1013.9 |
| 20260507151556 | 18 | 179 | 12.9 | 20.9 | 0.00 | 0.00 | 0.00 | 71 | 1014.0 |
| 20260507151016 | 18 | 178 | 11.3 | 20.9 | 0.00 | 0.00 | 0.00 | 72 | 1013.9 |
| 20260507150516 | 18 | 184 | 11.3 | 19.3 | 0.00 | 0.00 | 0.00 | 72 | 1013.9 |
| 20260507150016 | 18 | 177 | 11.3 | 19.3 | 0.00 | 0.00 | 0.00 | 72 | 1013.9 |
| 20260507145516 | 18 | 177 | 11.3 | 19.3 | 0.00 | 0.00 | 0.00 | 72 | 1013.9 |
| 20260507145016 | 18 | 179 | 9.7 | 19.3 | 0.00 | 0.00 | 0.00 | 71 | 1014.0 |
| 20260507144516 | 18 | 189 | 9.7 | 20.9 | 0.00 | 0.00 | 0.00 | 71 | 1014.0 |
| 20260507144016 | 19 | 177 | 12.9 | 20.9 | 0.00 | 0.00 | 0.00 | 71 | 1014.1 |
| 20260507143516 | 19 | 168 | 9.7 | 19.3 | 0.00 | 0.00 | 0.00 | 71 | 1014.0 |
| 20260507143036 | 19 | 177 | 11.3 | 19.3 | 0.00 | 0.00 | 0.00 | 70 | 1014.1 |
| 20260507142516 | 20 | 156 | 8.0 | 19.3 | 0.00 | 0.00 | 0.00 | 71 | 1014.1 |
| 20260507142016 | 19 | 159 | 6.4 | 20.9 | 0.00 | 0.00 | 0.00 | 71 | 1014.1 |
| 20260507141516 | 19 | 163 | 9.7 | 20.9 | 0.00 | 0.00 | 0.00 | 71 | 1014.2 |
| 20260507141016 | 19 | 164 | 6.4 | 22.5 | 0.00 | 0.00 | 0.00 | 70 | 1014.2 |
| 20260507140516 | 19 | 159 | 9.7 | 22.5 | 0.00 | 0.00 | 0.00 | 71 | 1014.3 |
| 20260507140036 | 19 | 190 | 9.7 | 17.7 | 0.00 | 0.00 | 0.00 | 71 | 1014.3 |
| 20260507135556 | 19 | 149 | 9.7 | 19.3 | 0.00 | 0.00 | 0.00 | 71 | 1014.3 |
| 20260507135016 | 19 | 171 | 11.3 | 20.9 | 0.00 | 0.00 | 0.00 | 70 | 1014.4 |
| 20260507134516 | 19 | 179 | 11.3 | 20.9 | 0.00 | 0.00 | 0.00 | 71 | 1014.4 |
| 20260507134016 | 19 | 150 | 9.7 | 24.1 | 0.00 | 0.00 | 0.00 | 71 | 1014.3 |
| 20260507133516 | 19 | 165 | 11.3 | 24.1 | 0.00 | 0.00 | 0.00 | 70 | 1014.3 |
| 20260507133036 | 19 | 162 | 8.0 | 19.3 | 0.00 | 0.00 | 0.00 | 70 | 1014.3 |
| 20260507132536 | 19 | 155 | 9.7 | 19.3 | 0.00 | 0.00 | 0.00 | 70 | 1014.3 |
| 20260507132036 | 19 | 150 | 11.3 | 22.5 | 0.00 | 0.00 | 0.00 | 70 | 1014.4 |
| 20260507131516 | 19 | 177 | 11.3 | 22.5 | 0.00 | 0.00 | 0.00 | 71 | 1014.4 |
| 20260507131016 | 19 | 172 | 11.3 | 22.5 | 0.00 | 0.00 | 0.00 | 70 | 1014.4 |
| 20260507130556 | 19 | 185 | 14.5 | 19.3 | 0.00 | 0.00 | 0.00 | 71 | 1014.4 |
| 20260507123016 | 19 | 178 | 9.7 | 22.5 | 0.00 | 0.00 | 0.00 | 71 | 1014.3 |
| 20260507122516 | 19 | 129 | 6.4 | 20.9 | 0.00 | 0.00 | 0.00 | 71 | 1014.2 |
| 20260507122036 | 20 | 97 | 8.0 | 20.9 | 0.00 | 0.00 | 0.00 | 70 | 1014.1 |
| 20260507121516 | 20 | 107 | 8.0 | 17.7 | 0.00 | 0.00 | 0.00 | 71 | 1014.2 |
| 20260507121016 | 20 | 118 | 6.4 | 17.7 | 0.00 | 0.00 | 0.00 | 71 | 1014.1 |
| 20260507120516 | 20 | 98 | 4.8 | 16.1 | 0.00 | 0.00 | 0.00 | 72 | 1014.1 |
| 20260507120016 | 20 | 133 | 6.4 | 24.1 | 0.00 | 0.00 | 0.00 | 71 | 1014.2 |
| 20260507115516 | 20 | 119 | 9.7 | 24.1 | 0.00 | 0.00 | 0.00 | 72 | 1014.2 |
| 20260507115015 | 20 | 136 | 8.0 | 17.7 | 0.00 | 0.00 | 0.00 | 72 | 1014.3 |
| 20260507114516 | 19 | 127 | 4.8 | 14.5 | 0.00 | 0.00 | 0.00 | 73 | 1014.3 |
| 20260507114015 | 19 | 168 | 4.8 | 14.5 | 0.00 | 0.00 | 0.00 | 73 | 1014.5 |
| 20260507113516 | 18 | 143 | 4.8 | 22.5 | 0.00 | 0.00 | 0.00 | 73 | 1014.5 |
| 20260507113116 | 19 | 78 | 9.7 | 22.5 | 0.00 | 0.00 | 0.00 | 72 | 1014.5 |
| 20260507112516 | 19 | 123 | 4.8 | 14.5 | 0.00 | 0.00 | 0.00 | 72 | 1014.5 |
| 20260507112016 | 19 | 88 | 6.4 | 19.3 | 0.00 | 0.00 | 0.00 | 72 | 1014.5 |
| 20260507111515 | 19 | 93 | 8.0 | 19.3 | 0.00 | 0.00 | 0.00 | 72 | 1014.6 |
| 20260507111015 | 19 | 106 | 8.0 | 19.3 | 0.00 | 0.00 | 0.00 | 72 | 1014.5 |
| 20260507110515 | 19 | 96 | 9.7 | 20.9 | 0.00 | 0.00 | 0.00 | 70 | 1014.5 |
| 20260507110016 | 20 | 105 | 9.7 | 24.1 | 0.00 | 0.00 | 0.00 | 69 | 1014.4 |
| 20260507105516 | 20 | 104 | 8.0 | 24.1 | 0.00 | 0.00 | 0.00 | 69 | 1014.3 |
| 20260507105015 | 19 | 95 | 8.0 | 17.7 | 0.00 | 0.00 | 0.00 | 70 | 1014.4 |
| 20260507104516 | 19 | 114 | 6.4 | 20.9 | 0.00 | 0.00 | 0.00 | 72 | 1014.5 |
| 20260507104016 | 19 | 93 | 9.7 | 22.5 | 0.00 | 0.00 | 0.00 | 72 | 1014.5 |
| 20260507103515 | 18 | 108 | 8.0 | 24.1 | 0.00 | 0.00 | 0.00 | 72 | 1014.6 |
| 20260507103016 | 18 | 103 | 9.7 | 25.7 | 0.00 | 0.00 | 0.00 | 74 | 1014.6 |
| 20260507102515 | 18 | 79 | 14.5 | 25.7 | 0.00 | 0.00 | 0.00 | 73 | 1014.6 |
| 20260507102035 | 19 | 98 | 9.7 | 22.5 | 0.00 | 0.00 | 0.00 | 72 | 1014.6 |
| 20260507101516 | 18 | 132 | 6.4 | 19.3 | 0.00 | 0.00 | 0.00 | 73 | 1014.6 |
| 20260507101015 | 19 | 119 | 6.4 | 17.7 | 0.00 | 0.00 | 0.00 | 73 | 1014.6 |
| 20260507100515 | 19 | 207 | 3.2 | 14.5 | 0.00 | 0.00 | 0.00 | 73 | 1014.6 |
| 20260507100016 | 19 | 117 | 4.8 | 24.1 | 0.00 | 0.00 | 0.00 | 73 | 1014.6 |
| 20260507095535 | 19 | 96 | 9.7 | 24.1 | 0.00 | 0.00 | 0.00 | 72 | 1014.5 |
| 20260507095015 | 19 | 73 | 8.0 | 25.7 | 0.00 | 0.00 | 0.00 | 71 | 1014.5 |
| 20260507094515 | 19 | 94 | 9.7 | 25.7 | 0.00 | 0.00 | 0.00 | 71 | 1014.4 |
| 20260507094016 | 19 | 89 | 9.7 | 25.7 | 0.00 | 0.00 | 0.00 | 71 | 1014.3 |
| 20260507093535 | 19 | 77 | 9.7 | 25.7 | 0.00 | 0.00 | 0.00 | 71 | 1014.4 |
| 20260507093015 | 19 | 107 | 6.4 | 17.7 | 0.00 | 0.00 | 0.00 | 71 | 1014.5 |
| 20260507092535 | 19 | 137 | 4.8 | 12.9 | 0.00 | 0.00 | 0.00 | 71 | 1014.5 |
| 20260507092016 | 19 | 100 | 6.4 | 20.9 | 0.00 | 0.00 | 0.00 | 72 | 1014.4 |
| 20260507091515 | 18 | 94 | 9.7 | 20.9 | 0.00 | 0.00 | 0.00 | 72 | 1014.3 |
| 20260507091015 | 18 | 99 | 8.0 | 22.5 | 0.00 | 0.00 | 0.00 | 72 | 1014.3 |
| 20260507090515 | 18 | 83 | 11.3 | 32.2 | 0.00 | 0.00 | 0.00 | 71 | 1014.3 |
| 20260507090015 | 18 | 77 | 11.3 | 32.2 | 0.00 | 0.00 | 0.00 | 71 | 1014.3 |
| 20260507085515 | 18 | 85 | 9.7 | 29.0 | 0.00 | 0.00 | 0.00 | 71 | 1014.3 |
| 20260507085015 | 18 | 119 | 8.0 | 29.0 | 0.00 | 0.00 | 0.00 | 72 | 1014.3 |
| 20260507084515 | 18 | 89 | 6.4 | 25.7 | 0.00 | 0.00 | 0.00 | 71 | 1014.3 |
| 20260507084015 | 18 | 97 | 9.7 | 27.4 | 0.00 | 0.00 | 0.00 | 72 | 1014.2 |
| 20260507083516 | 18 | 87 | 11.3 | 27.4 | 0.00 | 0.00 | 0.00 | 71 | 1014.2 |
| 20260507083015 | 18 | 120 | 9.7 | 22.5 | 0.00 | 0.00 | 0.00 | 72 | 1014.2 |
| 20260507082555 | 18 | 102 | 14.5 | 20.9 | 0.00 | 0.00 | 0.00 | 71 | 1014.2 |
| 20260507082015 | 18 | 118 | 9.7 | 20.9 | 0.00 | 0.00 | 0.00 | 72 | 1014.1 |
| 20260507081515 | 18 | 115 | 9.7 | 22.5 | 0.00 | 0.00 | 0.00 | 73 | 1014.1 |
| 20260507081015 | 18 | 81 | 12.9 | 22.5 | 0.00 | 0.00 | 0.00 | 73 | 1014.0 |
| 20260507080515 | 18 | 79 | 11.3 | 29.0 | 0.00 | 0.00 | 0.00 | 73 | 1014.0 |
| 20260507080015 | 18 | 88 | 8.0 | 29.0 | 0.00 | 0.00 | 0.00 | 74 | 1014.0 |
| 20260507075515 | 17 | 89 | 9.7 | 25.7 | 0.00 | 0.15 | 0.00 | 73 | 1014.0 |
| 20260507075015 | 17 | 102 | 12.9 | 25.7 | 0.00 | 0.15 | 0.00 | 72 | 1013.9 |
| 20260507074555 | 18 | 114 | 9.7 | 22.5 | 0.00 | 0.15 | 0.00 | 73 | 1013.9 |
| 20260507074015 | 17 | 107 | 11.3 | 22.5 | 0.00 | 0.15 | 0.00 | 73 | 1013.8 |
| 20260507073515 | 17 | 125 | 12.9 | 22.5 | 0.00 | 0.15 | 0.00 | 74 | 1013.8 |
| 20260507073015 | 17 | 115 | 12.9 | 22.5 | 0.00 | 0.15 | 0.00 | 74 | 1013.8 |
| 20260507072515 | 17 | 124 | 11.3 | 22.5 | 0.00 | 0.15 | 0.00 | 74 | 1013.8 |
| 20260507072035 | 17 | 125 | 9.7 | 19.3 | 0.00 | 0.15 | 0.00 | 74 | 1013.8 |
| 20260507071515 | 17 | 117 | 6.4 | 16.1 | 0.00 | 0.15 | 0.00 | 74 | 1013.7 |
| 20260507071055 | 17 | 128 | 4.8 | 16.1 | 0.00 | 0.15 | 0.00 | 74 | 1013.6 |
| 20260507070515 | 17 | 121 | 4.8 | 17.7 | 0.00 | 0.15 | 0.00 | 75 | 1013.7 |
| 20260507070015 | 17 | 87 | 8.0 | 17.7 | 0.00 | 0.15 | 0.00 | 75 | 1013.6 |
| 20260507065515 | 17 | 87 | 3.2 | 14.5 | 0.00 | 0.15 | 0.00 | 75 | 1013.5 |
| 20260507065015 | 16 | 107 | 6.4 | 14.5 | 0.00 | 0.15 | 0.00 | 76 | 1013.4 |
| 20260507064515 | 16 | 124 | 6.4 | 14.5 | 0.00 | 0.15 | 0.00 | 76 | 1013.4 |
| 20260507064015 | 16 | 121 | 6.4 | 12.9 | 0.00 | 0.15 | 0.00 | 76 | 1013.4 |
| 20260507063515 | 16 | 122 | 4.8 | 11.3 | 0.00 | 0.15 | 0.00 | 75 | 1013.4 |
| 20260507063015 | 16 | 89 | 3.2 | 11.3 | 0.00 | 0.15 | 0.00 | 75 | 1013.3 |
| 20260507062515 | 16 | 106 | 4.8 | 12.9 | 0.00 | 0.15 | 0.00 | 75 | 1013.3 |
| 20260507062015 | 16 | 107 | 4.8 | 12.9 | 0.00 | 0.15 | 0.00 | 76 | 1013.3 |
| 20260507061515 | 16 | 101 | 3.2 | 9.7 | 0.00 | 0.15 | 0.00 | 76 | 1013.2 |
| 20260507061015 | 16 | 116 | 3.2 | 12.9 | 0.00 | 0.15 | 0.00 | 76 | 1013.2 |
| 20260507060515 | 16 | 77 | 6.4 | 12.9 | 0.00 | 0.15 | 0.00 | 77 | 1013.1 |
| 20260507060015 | 16 | 76 | 4.8 | 16.1 | 0.00 | 0.15 | 0.00 | 77 | 1013.1 |
| 20260507055535 | 15 | 78 | 8.0 | 17.7 | 0.00 | 0.15 | 0.00 | 77 | 1013.2 |
| 20260507055015 | 15 | 76 | 6.4 | 17.7 | 0.00 | 0.15 | 0.00 | 78 | 1013.1 |
| 20260507054515 | 15 | 86 | 4.8 | 12.9 | 0.00 | 0.15 | 0.00 | 78 | 1013.1 |
| 20260507054015 | 15 | 83 | 6.4 | 12.9 | 0.00 | 0.15 | 0.00 | 78 | 1012.9 |
| 20260507053515 | 15 | 85 | 3.2 | 9.7 | 0.00 | 0.15 | 0.00 | 78 | 1013.0 |
| 20260507053035 | 15 | 112 | 3.2 | 9.7 | 0.00 | 0.15 | 0.00 | 78 | 1013.0 |
| 20260507052515 | 15 | 90 | 3.2 | 11.3 | 0.00 | 0.15 | 0.00 | 78 | 1012.9 |
| 20260507052015 | 15 | 77 | 4.8 | 11.3 | 0.00 | 0.15 | 0.00 | 79 | 1012.8 |
| 20260507051535 | 15 | 81 | 4.8 | 12.9 | 0.00 | 0.15 | 0.00 | 79 | 1012.8 |
| 20260507051035 | 15 | 72 | 4.8 | 12.9 | 0.00 | 0.15 | 0.00 | 80 | 1012.8 |
| 20260507050515 | 15 | 88 | 3.2 | 11.3 | 0.00 | 0.15 | 0.00 | 80 | 1012.7 |
| 20260507050015 | 15 | 133 | 3.2 | 8.0 | 0.00 | 0.18 | 0.00 | 80 | 1012.6 |
| 20260507045515 | 15 | 84 | 1.6 | 8.0 | 0.00 | 0.18 | 0.00 | 81 | 1012.7 |
| 20260507045035 | 15 | 75 | 3.2 | 8.0 | 0.00 | 0.18 | 0.00 | 81 | 1012.6 |
| 20260507044515 | 15 | 123 | 1.6 | 8.0 | 0.00 | 0.20 | 0.00 | 81 | 1012.5 |
| 20260507044015 | 15 | 119 | 3.2 | 8.0 | 0.00 | 0.20 | 0.00 | 81 | 1012.4 |
| 20260507043535 | 14 | 112 | 3.2 | 4.8 | 0.00 | 0.23 | 0.00 | 81 | 1012.6 |
| 20260507043035 | 14 | 124 | 1.6 | 6.4 | 0.00 | 0.25 | 0.00 | 81 | 1012.5 |
| 20260507042515 | 14 | 75 | 1.6 | 6.4 | 0.00 | 0.28 | 0.00 | 81 | 1012.5 |
| 20260507042015 | 14 | 71 | 3.2 | 6.4 | 0.00 | 0.28 | 0.00 | 82 | 1012.5 |
| 20260507041515 | 14 | 81 | 1.6 | 6.4 | 0.00 | 0.28 | 0.00 | 82 | 1012.5 |
| 20260507041015 | 14 | 82 | 3.2 | 6.4 | 0.00 | 0.28 | 0.00 | 82 | 1012.5 |
| 20260507040516 | 14 | 97 | 1.6 | 6.4 | 0.00 | 0.28 | 0.00 | 83 | 1012.4 |
| 20260507040015 | 14 | 121 | 3.2 | 6.4 | 0.00 | 0.28 | 0.00 | 83 | 1012.4 |
| 20260507035535 | 14 | 126 | 1.6 | 9.7 | 0.00 | 0.28 | 0.00 | 83 | 1012.4 |
| 20260507035015 | 14 | 84 | 3.2 | 12.9 | 0.00 | 0.28 | 0.00 | 83 | 1012.4 |
| 20260507034515 | 14 | 83 | 4.8 | 12.9 | 0.00 | 0.28 | 0.00 | 83 | 1012.4 |
| 20260507034015 | 13 | 84 | 3.2 | 8.0 | 0.00 | 0.28 | 0.00 | 84 | 1012.4 |
| 20260507033555 | 13 | 115 | 4.8 | 11.3 | 0.00 | 0.28 | 0.00 | 84 | 1012.4 |
| 20260507033015 | 13 | 129 | 4.8 | 11.3 | 0.00 | 0.30 | 0.00 | 84 | 1012.4 |
| 20260507032515 | 13 | 92 | 3.2 | 6.4 | 0.00 | 0.30 | 0.00 | 84 | 1012.4 |
| 20260507032015 | 13 | 98 | 1.6 | 6.4 | 0.00 | 0.71 | 0.00 | 84 | 1012.4 |
| 20260507031535 | 13 | 112 | 3.2 | 11.3 | 0.00 | 1.14 | 0.00 | 85 | 1012.4 |
| 20260507031015 | 13 | 127 | 3.2 | 11.3 | 0.00 | 1.17 | 0.00 | 85 | 1012.4 |
| 20260507030515 | 13 | 81 | 3.2 | 6.4 | 0.00 | 1.17 | 0.00 | 85 | 1012.4 |
| 20260507030015 | 13 | 92 | 3.2 | 6.4 | 0.00 | 1.22 | 0.00 | 85 | 1012.4 |
| 20260507025515 | 13 | 118 | 1.6 | 6.4 | 0.00 | 1.22 | 0.00 | 85 | 1012.5 |
| 20260507025035 | 13 | 107 | 1.6 | 6.4 | 0.00 | 1.22 | 0.00 | 85 | 1012.5 |
| 20260507024515 | 13 | 110 | 3.2 | 6.4 | 0.00 | 1.24 | 0.00 | 85 | 1012.5 |
| 20260507024015 | 13 | 104 | 3.2 | 12.9 | 0.00 | 1.42 | 0.00 | 85 | 1012.5 |
| 20260507023535 | 13 | 89 | 4.8 | 12.9 | 0.00 | 1.45 | 0.00 | 85 | 1012.5 |
| 20260507023015 | 13 | 90 | 3.2 | 11.3 | 0.00 | 1.45 | 0.00 | 85 | 1012.5 |
| 20260507022515 | 13 | 104 | 3.2 | 11.3 | 0.00 | 1.45 | 0.00 | 85 | 1012.5 |
| 20260507022015 | 13 | 105 | 3.2 | 12.9 | 0.00 | 1.45 | 0.00 | 86 | 1012.5 |
| 20260507021515 | 13 | 98 | 3.2 | 12.9 | 0.00 | 1.50 | 0.00 | 86 | 1012.5 |
| 20260507021015 | 13 | 87 | 3.2 | 11.3 | 0.00 | 1.52 | 0.00 | 86 | 1012.6 |
| 20260507020515 | 13 | 100 | 1.6 | 11.3 | 0.00 | 1.52 | 0.00 | 86 | 1012.6 |
| 20260507020015 | 13 | 124 | 3.2 | 8.0 | 0.00 | 1.55 | 0.00 | 86 | 1012.6 |
| 20260507015515 | 13 | 123 | 3.2 | 8.0 | 0.00 | 1.57 | 0.00 | 86 | 1012.5 |
| 20260507015035 | 13 | 123 | 3.2 | 6.4 | 0.00 | 1.68 | 0.00 | 86 | 1012.5 |
| 20260507014515 | 13 | 116 | 3.2 | 6.4 | 0.00 | 1.68 | 0.00 | 85 | 1012.5 |
| 20260507014014 | 13 | 112 | 1.6 | 6.4 | 0.00 | 1.73 | 0.00 | 85 | 1012.4 |
| 20260507013515 | 13 | 117 | 3.2 | 9.7 | 0.00 | 1.75 | 0.00 | 85 | 1012.4 |
| 20260507013015 | 13 | 106 | 1.6 | 11.3 | 0.00 | 1.75 | 0.00 | 85 | 1012.4 |
| 20260507012514 | 13 | 78 | 3.2 | 11.3 | 0.00 | 1.75 | 0.00 | 85 | 1012.5 |
| 20260507012015 | 13 | 80 | 4.8 | 11.3 | 0.00 | 1.75 | 0.00 | 85 | 1012.5 |
| 20260507011514 | 13 | 92 | 3.2 | 12.9 | 0.00 | 1.75 | 0.00 | 85 | 1012.5 |
| 20260507011014 | 14 | 83 | 6.4 | 12.9 | 0.00 | 1.75 | 0.00 | 85 | 1012.6 |
| 20260507010515 | 14 | 82 | 3.2 | 6.4 | 0.00 | 1.75 | 0.00 | 85 | 1012.6 |
| 20260507010035 | 14 | 78 | 3.2 | 8.0 | 0.00 | 1.75 | 0.00 | 85 | 1012.7 |
| 20260507005515 | 14 | 74 | 3.2 | 9.7 | 0.00 | 1.75 | 0.00 | 85 | 1012.6 |
| 20260507005014 | 14 | 115 | 3.2 | 9.7 | 0.00 | 1.75 | 0.00 | 85 | 1012.6 |
| 20260507004514 | 14 | 103 | 1.6 | 9.7 | 0.00 | 1.75 | 0.00 | 85 | 1012.6 |
| 20260507004014 | 14 | 114 | 3.2 | 9.7 | 0.00 | 1.75 | 0.00 | 85 | 1012.6 |
| 20260507003534 | 14 | 87 | 1.6 | 9.7 | 0.00 | 1.75 | 0.00 | 85 | 1012.6 |
| 20260507003034 | 14 | 86 | 3.2 | 9.7 | 0.00 | 1.75 | 0.00 | 85 | 1012.6 |
| 20260507002514 | 14 | 77 | 1.6 | 9.7 | 0.00 | 1.75 | 0.00 | 85 | 1012.5 |
| 20260507002016 | 14 | 75 | 3.2 | 11.3 | 0.00 | 1.75 | 0.00 | 85 | 1012.5 |
| 20260507001537 | 14 | 81 | 6.4 | 11.3 | 0.00 | 1.75 | 0.00 | 84 | 1012.6 |
| 20260507001016 | 14 | 88 | 3.2 | 6.4 | 0.00 | 1.75 | 0.00 | 85 | 1012.6 |
| 20260507000517 | 14 | 77 | 1.6 | 4.8 | 0.00 | 1.78 | 0.00 | 85 | 1012.6 |
| 20260507000016 | 14 | 125 | 1.6 | 4.8 | 0.00 | 1.78 | 0.00 | 85 | 1012.6 |
| 20260506235516 | 14 | 123 | 1.6 | 4.8 | 0.00 | 1.80 | 0.00 | 85 | 1012.6 |
| 20260506235016 | 14 | 134 | 1.6 | 6.4 | 0.00 | 1.93 | 0.00 | 84 | 1012.6 |
| 20260506234516 | 14 | 72 | 3.2 | 11.3 | 0.00 | 1.98 | 0.00 | 84 | 1012.7 |
| 20260506234016 | 14 | 75 | 4.8 | 11.3 | 0.00 | 2.21 | 0.00 | 84 | 1012.8 |
| 20260506233536 | 14 | 73 | 4.8 | 11.3 | 0.00 | 2.29 | 0.00 | 84 | 1012.8 |
| 20260506233017 | 14 | 101 | 3.2 | 11.3 | 0.00 | 2.31 | 0.00 | 84 | 1012.8 |
| 20260506232514 | 14 | 78 | 3.2 | 11.3 | 0.00 | 2.31 | 0.00 | 84 | 1012.8 |
| 20260506232016 | 14 | 79 | 6.4 | 11.3 | 0.00 | 2.31 | 0.00 | 84 | 1012.8 |
| 20260506231516 | 14 | 73 | 3.2 | 8.0 | 0.00 | 2.31 | 0.00 | 84 | 1012.8 |
| 20260506231016 | 14 | 74 | 3.2 | 6.4 | 0.00 | 2.31 | 0.00 | 84 | 1012.7 |
| 20260506230537 | 14 | 74 | 3.2 | 9.7 | 0.00 | 2.31 | 0.00 | 84 | 1012.8 |
| 20260506230016 | 14 | 82 | 3.2 | 9.7 | 0.00 | 2.31 | 0.00 | 83 | 1012.7 |
| 20260506225536 | 14 | 83 | 3.2 | 9.7 | 0.00 | 2.31 | 0.00 | 83 | 1012.6 |
| 20260506225016 | 14 | 69 | 4.8 | 8.0 | 0.00 | 2.31 | 0.00 | 83 | 1012.6 |
| 20260506224516 | 14 | 81 | 3.2 | 8.0 | 0.00 | 2.31 | 0.00 | 84 | 1012.5 |
| 20260506224016 | 14 | 97 | 3.2 | 8.0 | 0.00 | 2.31 | 0.00 | 84 | 1012.5 |
| 20260506223516 | 14 | 111 | 0.0 | 4.8 | 0.00 | 2.31 | 0.00 | 83 | 1012.5 |
| 20260506223016 | 14 | 119 | 1.6 | 6.4 | 0.00 | 2.31 | 0.00 | 83 | 1012.7 |
| 20260506222516 | 14 | 122 | 3.2 | 6.4 | 0.00 | 2.31 | 0.00 | 83 | 1012.6 |
| 20260506222037 | 14 | 115 | 1.6 | 11.3 | 0.00 | 2.31 | 0.00 | 83 | 1012.6 |
| 20260506221516 | 14 | 88 | 1.6 | 11.3 | 0.00 | 2.31 | 0.00 | 83 | 1012.5 |
| 20260506221016 | 14 | 100 | 4.8 | 9.7 | 0.00 | 2.31 | 0.00 | 83 | 1012.6 |
| 20260506220517 | 14 | 104 | 1.6 | 9.7 | 0.00 | 2.31 | 0.00 | 82 | 1012.6 |
| 20260506220016 | 14 | 95 | 3.2 | 9.7 | 0.00 | 2.31 | 2.31 | 82 | 1012.6 |
| 20260506215515 | 14 | 106 | 4.8 | 11.3 | 0.00 | 2.31 | 2.31 | 82 | 1012.6 |
| 20260506215014 | 14 | 104 | 4.8 | 12.9 | 0.00 | 2.31 | 2.31 | 82 | 1012.6 |
| 20260506214517 | 14 | 106 | 4.8 | 12.9 | 0.00 | 2.31 | 2.31 | 82 | 1012.6 |
| 20260506214016 | 14 | 105 | 4.8 | 11.3 | 0.00 | 2.31 | 2.31 | 82 | 1012.6 |
| 20260506213517 | 14 | 88 | 4.8 | 11.3 | 0.00 | 2.31 | 2.31 | 81 | 1012.6 |
| 20260506213057 | 14 | 94 | 4.8 | 11.3 | 0.00 | 2.31 | 2.31 | 81 | 1012.6 |
| 20260506212537 | 14 | 91 | 4.8 | 12.9 | 0.00 | 2.31 | 2.31 | 81 | 1012.6 |
| 20260506212017 | 15 | 89 | 4.8 | 12.9 | 0.00 | 2.31 | 2.31 | 81 | 1012.6 |
| 20260506211517 | 15 | 102 | 3.2 | 9.7 | 0.00 | 2.31 | 2.31 | 80 | 1012.6 |
| 20260506211016 | 15 | 113 | 3.2 | 11.3 | 0.00 | 2.31 | 2.31 | 80 | 1012.6 |
| 20260506210516 | 15 | 108 | 3.2 | 11.3 | 0.00 | 2.31 | 2.31 | 80 | 1012.7 |
| 20260506210016 | 15 | 123 | 4.8 | 11.3 | 0.00 | 2.31 | 2.31 | 80 | 1012.6 |
| 20260506205517 | 15 | 114 | 3.2 | 11.3 | 0.00 | 2.31 | 2.31 | 80 | 1012.6 |
| 20260506205017 | 15 | 120 | 3.2 | 9.7 | 0.00 | 2.31 | 2.31 | 79 | 1012.6 |
| 20260506204517 | 15 | 102 | 3.2 | 11.3 | 0.00 | 2.31 | 2.31 | 79 | 1012.6 |
| 20260506204016 | 15 | 89 | 4.8 | 12.9 | 0.00 | 2.31 | 2.31 | 79 | 1012.5 |
| 20260506203516 | 15 | 98 | 4.8 | 12.9 | 0.00 | 2.31 | 2.31 | 79 | 1012.6 |
| 20260506203015 | 16 | 104 | 3.2 | 11.3 | 0.00 | 2.31 | 2.31 | 79 | 1012.5 |
| 20260506202516 | 16 | 101 | 3.2 | 11.3 | 0.00 | 2.31 | 2.31 | 79 | 1012.5 |
| 20260506202016 | 16 | 108 | 3.2 | 9.7 | 0.00 | 2.31 | 2.31 | 79 | 1012.5 |
| 20260506201517 | 16 | 107 | 3.2 | 9.7 | 0.00 | 2.31 | 2.31 | 79 | 1012.5 |
| 20260506201017 | 16 | 113 | 3.2 | 8.0 | 0.00 | 2.31 | 2.31 | 79 | 1012.4 |
| 20260506200537 | 16 | 114 | 3.2 | 8.0 | 0.00 | 2.31 | 2.31 | 79 | 1012.3 |
| 20260506200058 | 16 | 81 | 3.2 | 6.4 | 0.00 | 2.31 | 2.31 | 79 | 1012.3 |
| 20260506195519 | 16 | 76 | 3.2 | 8.0 | 0.00 | 2.31 | 2.31 | 79 | 1012.2 |
| 20260506195016 | 16 | 72 | 4.8 | 8.0 | 0.00 | 2.31 | 2.31 | 78 | 1012.2 |
| 20260506194517 | 16 | 64 | 3.2 | 8.0 | 0.00 | 2.31 | 2.31 | 78 | 1012.1 |
| 20260506194017 | 16 | 100 | 3.2 | 8.0 | 0.00 | 2.31 | 2.31 | 78 | 1012.1 |
| 20260506193516 | 16 | 110 | 1.6 | 8.0 | 0.00 | 2.31 | 2.31 | 78 | 1012.0 |
| 20260506193017 | 16 | 86 | 1.6 | 6.4 | 0.00 | 2.31 | 2.31 | 78 | 1011.9 |
| 20260506192516 | 17 | 127 | 3.2 | 6.4 | 0.00 | 2.31 | 2.31 | 78 | 1011.7 |
| 20260506192016 | 17 | 128 | 1.6 | 6.4 | 0.00 | 2.31 | 2.31 | 78 | 1011.7 |
| 20260506191518 | 17 | 95 | 1.6 | 4.8 | 0.00 | 2.31 | 2.31 | 77 | 1011.7 |
| 20260506191038 | 17 | 86 | 3.2 | 6.4 | 0.00 | 2.31 | 2.31 | 77 | 1011.6 |
| 20260506190517 | 17 | 120 | 3.2 | 6.4 | 0.00 | 2.31 | 2.31 | 77 | 1011.5 |
| 20260506190021 | 17 | 118 | 1.6 | 9.7 | 0.00 | 2.31 | 2.31 | 77 | 1011.5 |
| 20260506185516 | 17 | 125 | 1.6 | 12.9 | 0.00 | 2.31 | 2.31 | 77 | 1011.3 |
| 20260506185016 | 17 | 121 | 6.4 | 12.9 | 0.00 | 2.31 | 2.31 | 77 | 1011.2 |
| 20260506184537 | 17 | 114 | 6.4 | 14.5 | 0.00 | 2.31 | 2.31 | 76 | 1011.2 |
| 20260506184016 | 17 | 126 | 8.0 | 14.5 | 0.00 | 2.31 | 2.31 | 76 | 1011.1 |
| 20260506183556 | 17 | 134 | 4.8 | 9.7 | 0.00 | 2.31 | 2.31 | 76 | 1011.1 |